| time (UTC) | temp F | wind direction | speed MPH | gust MPH | rain 1hr in | rain 24hr in | rain mn in | humidity % | barometer mb |
| 20260508073514 | 63 | 0 | 0.0 | 0.0 | 0.00 | 0.00 | 0.00 | 77 | 1015.0 |
| 20260508073032 | 63 | 0 | 0.0 | 0.0 | 0.00 | 0.00 | 0.00 | 77 | 1014.6 |
| 20260508072512 | 63 | 0 | 0.0 | 0.0 | 0.00 | 0.00 | 0.00 | 77 | 1014.7 |
| 20260508072012 | 63 | 0 | 0.0 | 0.0 | 0.00 | 0.00 | 0.00 | 77 | 1014.6 |
| 20260508071534 | 63 | 0 | 0.0 | 0.0 | 0.00 | 0.00 | 0.00 | 77 | 1014.6 |
| 20260508071013 | 63 | 0 | 0.0 | 0.0 | 0.00 | 0.00 | 0.00 | 77 | 1014.9 |
| 20260508070513 | 63 | 0 | 0.0 | 0.0 | 0.00 | 0.00 | 0.00 | 77 | 1014.9 |
| 20260508070031 | 63 | 0 | 0.0 | 0.0 | 0.00 | 0.00 | 0.00 | 77 | 1014.8 |
| 20260508065513 | 63 | 0 | 0.0 | 0.0 | 0.00 | 0.00 | 0.00 | 77 | 1014.8 |
| 20260508065010 | 63 | 0 | 0.0 | 0.0 | 0.00 | 0.00 | 0.00 | 78 | 1014.9 |
| 20260508064542 | 63 | 0 | 0.0 | 0.0 | 0.00 | 0.00 | 0.00 | 77 | 1015.0 |
| 20260508064014 | 63 | 0 | 0.0 | 0.0 | 0.00 | 0.00 | 0.00 | 77 | 1015.3 |
| 20260508063514 | 63 | 0 | 0.0 | 0.0 | 0.00 | 0.00 | 0.00 | 78 | 1015.5 |
| 20260508063033 | 63 | 0 | 0.0 | 0.0 | 0.00 | 0.00 | 0.00 | 78 | 1015.4 |
| 20260508062519 | 63 | 0 | 0.0 | 0.0 | 0.00 | 0.00 | 0.00 | 77 | 1015.2 |
| 20260508062014 | 63 | 0 | 0.0 | 0.0 | 0.00 | 0.00 | 0.00 | 77 | 1015.4 |
| 20260508061535 | 63 | 0 | 0.0 | 0.0 | 0.00 | 0.00 | 0.00 | 77 | 1015.4 |
| 20260508061016 | 63 | 0 | 0.0 | 0.0 | 0.00 | 0.00 | 0.00 | 77 | 1015.5 |
| 20260508060517 | 63 | 0 | 0.0 | 0.0 | 0.00 | 0.00 | 0.00 | 77 | 1015.4 |
| 20260508060033 | 63 | 0 | 0.0 | 0.0 | 0.00 | 0.00 | 0.00 | 77 | 1015.4 |
| 20260508055513 | 63 | 0 | 0.0 | 0.0 | 0.00 | 0.00 | 0.00 | 77 | 1015.1 |
| 20260508055012 | 63 | 0 | 0.0 | 0.0 | 0.00 | 0.00 | 0.00 | 77 | 1015.3 |
| 20260508054542 | 63 | 0 | 0.0 | 0.0 | 0.00 | 0.00 | 0.00 | 77 | 1015.6 |
| 20260508054013 | 63 | 0 | 0.0 | 0.0 | 0.00 | 0.00 | 0.00 | 77 | 1015.3 |
| 20260508053512 | 63 | 0 | 0.0 | 0.0 | 0.00 | 0.00 | 0.00 | 76 | 1015.4 |
| 20260508053030 | 63 | 0 | 0.0 | 0.0 | 0.00 | 0.00 | 0.00 | 76 | 1015.3 |
| 20260508052515 | 63 | 0 | 0.0 | 0.0 | 0.00 | 0.00 | 0.00 | 76 | 1015.4 |
| 20260508052014 | 63 | 0 | 0.0 | 0.0 | 0.00 | 0.00 | 0.00 | 75 | 1015.5 |
| 20260508051534 | 63 | 0 | 0.0 | 0.0 | 0.00 | 0.00 | 0.00 | 75 | 1015.4 |
| 20260508051016 | 64 | 0 | 0.0 | 0.0 | 0.00 | 0.00 | 0.00 | 75 | 1015.4 |
| 20260508050515 | 64 | 0 | 0.0 | 0.0 | 0.00 | 0.00 | 0.00 | 75 | 1015.3 |
| 20260508050045 | 64 | 0 | 0.0 | 0.0 | 0.00 | 0.00 | 0.00 | 74 | 1015.2 |
| 20260508045513 | 64 | 0 | 0.0 | 0.0 | 0.00 | 0.00 | 0.00 | 74 | 1015.4 |
| 20260508045014 | 64 | 0 | 0.0 | 0.0 | 0.00 | 0.00 | 0.00 | 74 | 1015.4 |
| 20260508044534 | 64 | 0 | 0.0 | 0.0 | 0.00 | 0.00 | 0.00 | 74 | 1015.6 |
| 20260508044013 | 64 | 0 | 0.0 | 0.0 | 0.00 | 0.00 | 0.00 | 74 | 1015.5 |
| 20260508043513 | 64 | 0 | 0.0 | 0.0 | 0.00 | 0.00 | 0.00 | 74 | 1015.3 |
| 20260508043032 | 64 | 0 | 0.0 | 0.0 | 0.00 | 0.00 | 0.00 | 73 | 1015.4 |
| 20260508042512 | 64 | 0 | 0.0 | 0.0 | 0.00 | 0.00 | 0.00 | 73 | 1015.3 |
| 20260508042014 | 64 | 0 | 0.0 | 0.0 | 0.00 | 0.00 | 0.00 | 72 | 1015.4 |
| 20260508041530 | 64 | 0 | 0.0 | 0.0 | 0.00 | 0.00 | 0.00 | 72 | 1015.4 |
| 20260508041013 | 64 | 0 | 0.0 | 0.0 | 0.00 | 0.00 | 0.00 | 72 | 1015.4 |
| 20260508040513 | 65 | 0 | 0.0 | 0.0 | 0.00 | 0.00 | 0.00 | 72 | 1015.4 |
| 20260508040047 | 65 | 0 | 0.0 | 0.0 | 0.00 | 0.00 | 0.00 | 72 | 1015.3 |
| 20260508035515 | 65 | 0 | 0.0 | 0.0 | 0.00 | 0.00 | 0.00 | 72 | 1015.4 |
| 20260508035017 | 65 | 0 | 0.0 | 0.0 | 0.00 | 0.00 | 0.00 | 71 | 1015.3 |
| 20260508034541 | 65 | 0 | 0.0 | 0.0 | 0.00 | 0.00 | 0.00 | 71 | 1015.3 |
| 20260508034014 | 65 | 0 | 0.0 | 0.0 | 0.00 | 0.00 | 0.00 | 71 | 1015.3 |
| 20260508033511 | 65 | 0 | 0.0 | 0.0 | 0.00 | 0.00 | 0.00 | 71 | 1015.3 |
| 20260508033035 | 65 | 0 | 0.0 | 0.0 | 0.00 | 0.00 | 0.00 | 70 | 1015.2 |
| 20260508032513 | 66 | 0 | 0.0 | 0.0 | 0.00 | 0.00 | 0.00 | 70 | 1015.2 |
| 20260508032014 | 66 | 0 | 0.0 | 0.0 | 0.00 | 0.00 | 0.00 | 69 | 1015.3 |
| 20260508031533 | 66 | 0 | 0.0 | 0.0 | 0.00 | 0.00 | 0.00 | 69 | 1015.2 |
| 20260508031018 | 66 | 0 | 0.0 | 0.0 | 0.00 | 0.00 | 0.00 | 69 | 1015.2 |
| 20260508030515 | 66 | 0 | 0.0 | 0.0 | 0.00 | 0.00 | 0.00 | 69 | 1015.3 |
| 20260508030033 | 66 | 0 | 0.0 | 0.0 | 0.00 | 0.00 | 0.00 | 68 | 1015.1 |
| 20260508025513 | 66 | 0 | 0.0 | 0.0 | 0.00 | 0.00 | 0.00 | 68 | 1015.0 |
| 20260508025014 | 66 | 0 | 0.0 | 0.0 | 0.00 | 0.00 | 0.00 | 68 | 1015.1 |
| 20260508024531 | 66 | 0 | 0.0 | 1.0 | 0.00 | 0.00 | 0.00 | 68 | 1015.1 |
| 20260508024013 | 66 | 0 | 0.0 | 1.0 | 0.00 | 0.00 | 0.00 | 68 | 1015.0 |
| 20260508023513 | 66 | 0 | 0.0 | 2.0 | 0.00 | 0.00 | 0.00 | 67 | 1015.1 |
| 20260508023033 | 66 | 0 | 0.0 | 2.0 | 0.00 | 0.00 | 0.00 | 67 | 1015.1 |
| 20260508022513 | 67 | 0 | 0.0 | 2.0 | 0.00 | 0.00 | 0.00 | 67 | 1015.1 |
| 20260508022014 | 67 | 210 | 0.0 | 2.0 | 0.00 | 0.00 | 0.00 | 67 | 1015.0 |
| 20260508021533 | 67 | 0 | 0.0 | 3.0 | 0.00 | 0.00 | 0.00 | 66 | 1014.8 |
| 20260508021013 | 67 | 0 | 0.0 | 3.0 | 0.00 | 0.00 | 0.00 | 66 | 1014.8 |
| 20260508020517 | 67 | 0 | 0.0 | 1.0 | 0.00 | 0.00 | 0.00 | 65 | 1014.8 |
| 20260508020031 | 67 | 0 | 0.0 | 1.0 | 0.00 | 0.00 | 0.00 | 65 | 1014.7 |
| 20260508015516 | 67 | 0 | 0.0 | 0.0 | 0.00 | 0.00 | 0.00 | 65 | 1014.5 |
| 20260508015015 | 68 | 0 | 0.0 | 0.0 | 0.00 | 0.00 | 0.00 | 65 | 1014.6 |
| 20260508014534 | 68 | 0 | 0.0 | 0.0 | 0.00 | 0.00 | 0.00 | 64 | 1014.6 |
| 20260508014012 | 68 | 0 | 0.0 | 2.0 | 0.00 | 0.00 | 0.00 | 64 | 1014.7 |
| 20260508013512 | 68 | 0 | 0.0 | 2.0 | 0.00 | 0.00 | 0.00 | 65 | 1014.8 |
| 20260508013034 | 68 | 0 | 0.0 | 4.0 | 0.00 | 0.00 | 0.00 | 62 | 1014.6 |
| 20260508012514 | 68 | 0 | 0.0 | 4.0 | 0.00 | 0.00 | 0.00 | 62 | 1014.6 |
| 20260508012012 | 68 | 195 | 0.0 | 7.0 | 0.00 | 0.00 | 0.00 | 62 | 1014.5 |
| 20260508011533 | 68 | 195 | 0.0 | 7.0 | 0.00 | 0.00 | 0.00 | 62 | 1014.5 |
| 20260508011013 | 68 | 201 | 1.0 | 5.0 | 0.00 | 0.00 | 0.00 | 62 | 1014.5 |
| 20260508010513 | 68 | 0 | 2.0 | 5.0 | 0.00 | 0.00 | 0.00 | 61 | 1014.7 |
| 20260508010031 | 68 | 0 | 1.0 | 8.0 | 0.00 | 0.00 | 0.00 | 61 | 1014.7 |
| 20260508005512 | 68 | 225 | 3.0 | 8.0 | 0.00 | 0.00 | 0.00 | 61 | 1014.5 |
| 20260508005015 | 68 | 0 | 2.0 | 8.0 | 0.00 | 0.00 | 0.00 | 60 | 1014.6 |
| 20260508004534 | 69 | 201 | 1.0 | 8.0 | 0.00 | 0.00 | 0.00 | 60 | 1014.4 |
| 20260508004015 | 69 | 197 | 2.0 | 7.0 | 0.00 | 0.00 | 0.00 | 60 | 1014.6 |
| 20260508003518 | 69 | 177 | 3.0 | 9.0 | 0.00 | 0.00 | 0.00 | 60 | 1014.6 |
| 20260508003033 | 69 | 176 | 2.0 | 9.0 | 0.00 | 0.00 | 0.00 | 61 | 1014.6 |
| 20260508002513 | 69 | 186 | 3.0 | 8.0 | 0.00 | 0.00 | 0.00 | 61 | 1014.5 |
| 20260508002013 | 69 | 198 | 2.0 | 5.0 | 0.00 | 0.00 | 0.00 | 61 | 1014.6 |
| 20260508001532 | 69 | 202 | 1.0 | 7.0 | 0.00 | 0.00 | 0.00 | 61 | 1014.8 |
| 20260508001014 | 69 | 198 | 3.0 | 8.0 | 0.00 | 0.00 | 0.00 | 61 | 1014.7 |
| 20260508000517 | 70 | 186 | 2.0 | 8.0 | 0.00 | 0.00 | 0.00 | 61 | 1014.7 |
| 20260508000032 | 70 | 179 | 1.0 | 7.0 | 0.00 | 0.00 | 0.00 | 61 | 1014.9 |
| 20260507235517 | 70 | 198 | 3.0 | 7.0 | 0.00 | 0.00 | 0.00 | 61 | 1015.0 |
| 20260507235015 | 70 | 222 | 2.0 | 6.0 | 0.00 | 0.00 | 0.00 | 61 | 1014.9 |
| 20260507234543 | 70 | 208 | 2.0 | 8.0 | 0.00 | 0.00 | 0.00 | 61 | 1014.9 |
| 20260507234015 | 70 | 226 | 4.0 | 11.0 | 0.00 | 0.00 | 0.00 | 60 | 1014.8 |
| 20260507233514 | 71 | 190 | 5.0 | 11.0 | 0.00 | 0.00 | 0.00 | 59 | 1014.8 |
| 20260507233030 | 71 | 173 | 3.0 | 9.0 | 0.00 | 0.00 | 0.00 | 58 | 1014.7 |
| 20260507232515 | 72 | 181 | 4.0 | 9.0 | 0.00 | 0.00 | 0.00 | 58 | 1014.5 |
| 20260507232014 | 73 | 212 | 3.0 | 8.0 | 0.00 | 0.00 | 0.00 | 57 | 1014.6 |
| 20260507231534 | 73 | 218 | 3.0 | 8.0 | 0.00 | 0.00 | 0.00 | 56 | 1014.5 |
| 20260507231011 | 73 | 186 | 0.0 | 6.0 | 0.00 | 0.00 | 0.00 | 51 | 1014.5 |
| 20260507230513 | 74 | 164 | 0.0 | 2.0 | 0.00 | 0.00 | 0.00 | 51 | 1014.5 |
| 20260507230033 | 74 | 0 | 0.0 | 2.0 | 0.00 | 0.00 | 0.00 | 52 | 1014.7 |
| 20260507225512 | 74 | 0 | 0.0 | 4.0 | 0.00 | 0.00 | 0.00 | 51 | 1014.7 |
| 20260507225014 | 74 | 0 | 0.0 | 4.0 | 0.00 | 0.00 | 0.00 | 51 | 1014.6 |
| 20260507224532 | 74 | 202 | 0.0 | 6.0 | 0.00 | 0.00 | 0.00 | 52 | 1014.7 |
| 20260507224013 | 74 | 0 | 1.0 | 6.0 | 0.00 | 0.00 | 0.00 | 51 | 1014.7 |
| 20260507223513 | 74 | 0 | 1.0 | 4.0 | 0.00 | 0.00 | 0.00 | 51 | 1014.8 |
| 20260507223031 | 74 | 206 | 1.0 | 6.0 | 0.00 | 0.00 | 0.00 | 52 | 1014.9 |
| 20260507222513 | 74 | 187 | 2.0 | 6.0 | 0.00 | 0.00 | 0.00 | 51 | 1014.9 |
| 20260507222012 | 74 | 187 | 0.0 | 5.0 | 0.00 | 0.00 | 0.00 | 52 | 1014.9 |
| 20260507221534 | 74 | 0 | 2.0 | 5.0 | 0.00 | 0.00 | 0.00 | 50 | 1014.9 |
| 20260507221014 | 74 | 0 | 1.0 | 8.0 | 0.00 | 0.00 | 0.00 | 52 | 1015.0 |
| 20260507220512 | 75 | 200 | 2.0 | 8.0 | 0.00 | 0.00 | 0.00 | 50 | 1015.0 |
| 20260507220038 | 75 | 0 | 1.0 | 4.0 | 0.00 | 0.00 | 0.00 | 50 | 1015.2 |
| 20260507215512 | 75 | 0 | 0.0 | 3.0 | 0.00 | 0.00 | 0.00 | 47 | 1015.1 |
| 20260507215014 | 75 | 0 | 0.0 | 3.0 | 0.00 | 0.00 | 0.00 | 45 | 1015.0 |
| 20260507214533 | 75 | 0 | 0.0 | 3.0 | 0.00 | 0.00 | 0.00 | 48 | 1015.1 |
| 20260507214015 | 74 | 0 | 0.0 | 3.0 | 0.00 | 0.00 | 0.00 | 46 | 1015.2 |
| 20260507213513 | 75 | 0 | 0.0 | 2.0 | 0.00 | 0.00 | 0.00 | 46 | 1015.3 |
| 20260507213034 | 75 | 0 | 0.0 | 1.0 | 0.00 | 0.00 | 0.00 | 47 | 1015.4 |
| 20260507212514 | 75 | 0 | 0.0 | 2.0 | 0.00 | 0.00 | 0.00 | 46 | 1015.2 |
| 20260507212014 | 75 | 0 | 0.0 | 2.0 | 0.00 | 0.00 | 0.00 | 47 | 1015.3 |
| 20260507211537 | 75 | 0 | 0.0 | 1.0 | 0.00 | 0.00 | 0.00 | 46 | 1015.5 |
| 20260507211014 | 75 | 0 | 0.0 | 2.0 | 0.00 | 0.00 | 0.00 | 47 | 1015.4 |
| 20260507210513 | 75 | 0 | 0.0 | 2.0 | 0.00 | 0.00 | 0.00 | 45 | 1015.4 |
| 20260507210043 | 76 | 0 | 0.0 | 2.0 | 0.00 | 0.00 | 0.00 | 46 | 1015.4 |
| 20260507205517 | 76 | 0 | 0.0 | 1.0 | 0.00 | 0.00 | 0.00 | 47 | 1015.3 |
| 20260507205012 | 76 | 0 | 0.0 | 1.0 | 0.00 | 0.00 | 0.00 | 46 | 1015.4 |
| 20260507204536 | 76 | 0 | 0.0 | 2.0 | 0.00 | 0.00 | 0.00 | 46 | 1015.3 |
| 20260507204014 | 76 | 0 | 0.0 | 2.0 | 0.00 | 0.00 | 0.00 | 46 | 1015.4 |
| 20260507203516 | 75 | 0 | 0.0 | 2.0 | 0.00 | 0.00 | 0.00 | 46 | 1015.4 |
| 20260507203032 | 75 | 0 | 0.0 | 2.0 | 0.00 | 0.00 | 0.00 | 46 | 1015.5 |
| 20260507202514 | 75 | 0 | 0.0 | 2.0 | 0.00 | 0.00 | 0.00 | 47 | 1015.6 |
| 20260507202014 | 76 | 0 | 0.0 | 2.0 | 0.00 | 0.00 | 0.00 | 43 | 1015.7 |
| 20260507201532 | 76 | 0 | 0.0 | 3.0 | 0.00 | 0.00 | 0.00 | 45 | 1015.9 |
| 20260507201017 | 76 | 0 | 0.0 | 4.0 | 0.00 | 0.00 | 0.00 | 44 | 1015.8 |
| 20260507200515 | 76 | 0 | 0.0 | 4.0 | 0.00 | 0.00 | 0.00 | 45 | 1016.1 |
| 20260507200034 | 76 | 25 | 1.0 | 7.0 | 0.00 | 0.00 | 0.00 | 45 | 1016.1 |
| 20260507195514 | 76 | 0 | 1.0 | 7.0 | 0.00 | 0.00 | 0.00 | 43 | 1016.1 |
| 20260507195015 | 75 | 86 | 0.0 | 3.0 | 0.00 | 0.00 | 0.00 | 46 | 1016.0 |
| 20260507194546 | 76 | 87 | 1.0 | 5.0 | 0.00 | 0.00 | 0.00 | 43 | 1016.1 |
| 20260507194014 | 75 | 0 | 1.0 | 5.0 | 0.00 | 0.00 | 0.00 | 44 | 1016.2 |
| 20260507193518 | 76 | 0 | 0.0 | 4.0 | 0.00 | 0.00 | 0.00 | 44 | 1016.1 |
| 20260507193031 | 76 | 342 | 0.0 | 4.0 | 0.00 | 0.00 | 0.00 | 44 | 1016.2 |
| 20260507192513 | 77 | 0 | 0.0 | 4.0 | 0.00 | 0.00 | 0.00 | 45 | 1016.4 |
| 20260507192014 | 76 | 349 | 1.0 | 5.0 | 0.00 | 0.00 | 0.00 | 45 | 1016.5 |
| 20260507191532 | 76 | 43 | 3.0 | 5.0 | 0.00 | 0.00 | 0.00 | 45 | 1016.7 |
| 20260507191018 | 75 | 0 | 1.0 | 5.0 | 0.00 | 0.00 | 0.00 | 46 | 1016.6 |
| 20260507190513 | 74 | 41 | 0.0 | 5.0 | 0.00 | 0.00 | 0.00 | 47 | 1016.7 |
| 20260507190042 | 75 | 337 | 2.0 | 7.0 | 0.00 | 0.00 | 0.00 | 45 | 1016.7 |
| 20260507185516 | 74 | 20 | 2.0 | 9.0 | 0.00 | 0.00 | 0.00 | 47 | 1016.7 |
| 20260507185013 | 74 | 83 | 2.0 | 9.0 | 0.00 | 0.00 | 0.00 | 49 | 1016.7 |
| 20260507184543 | 74 | 347 | 3.0 | 5.0 | 0.00 | 0.00 | 0.00 | 48 | 1016.7 |
| 20260507184013 | 74 | 42 | 1.0 | 4.0 | 0.00 | 0.00 | 0.00 | 50 | 1016.7 |
| 20260507183514 | 73 | 358 | 1.0 | 6.0 | 0.00 | 0.00 | 0.00 | 48 | 1016.9 |
| 20260507183033 | 73 | 60 | 2.0 | 6.0 | 0.00 | 0.00 | 0.00 | 48 | 1017.2 |
| 20260507182512 | 74 | 1 | 2.0 | 6.0 | 0.00 | 0.00 | 0.00 | 48 | 1017.2 |
| 20260507182015 | 73 | 94 | 0.0 | 4.0 | 0.00 | 0.00 | 0.00 | 49 | 1017.2 |
| 20260507181531 | 73 | 96 | 1.0 | 5.0 | 0.00 | 0.00 | 0.00 | 50 | 1017.4 |
| 20260507181014 | 72 | 92 | 1.0 | 5.0 | 0.00 | 0.00 | 0.00 | 50 | 1017.3 |
| 20260507180514 | 72 | 35 | 1.0 | 8.0 | 0.00 | 0.00 | 0.00 | 50 | 1017.3 |
| 20260507180032 | 72 | 36 | 3.0 | 8.0 | 0.00 | 0.00 | 0.00 | 49 | 1017.6 |
| 20260507175514 | 72 | 66 | 1.0 | 5.0 | 0.00 | 0.00 | 0.00 | 50 | 1017.6 |
| 20260507175014 | 72 | 50 | 1.0 | 6.0 | 0.00 | 0.00 | 0.00 | 49 | 1017.7 |
| 20260507174535 | 72 | 50 | 2.0 | 8.0 | 0.00 | 0.00 | 0.00 | 49 | 1017.6 |
| 20260507174014 | 72 | 34 | 2.0 | 8.0 | 0.00 | 0.00 | 0.00 | 51 | 1017.6 |
| 20260507173517 | 72 | 349 | 1.0 | 6.0 | 0.00 | 0.00 | 0.00 | 51 | 1017.8 |
| 20260507173043 | 72 | 339 | 2.0 | 6.0 | 0.00 | 0.00 | 0.00 | 49 | 1017.9 |
| 20260507172513 | 72 | 339 | 2.0 | 6.0 | 0.00 | 0.00 | 0.00 | 50 | 1018.0 |
| 20260507172013 | 72 | 12 | 0.0 | 6.0 | 0.00 | 0.00 | 0.00 | 51 | 1018.1 |
| 20260507171533 | 72 | 12 | 1.0 | 6.0 | 0.00 | 0.00 | 0.00 | 52 | 1018.3 |
| 20260507171012 | 72 | 353 | 1.0 | 5.0 | 0.00 | 0.00 | 0.00 | 53 | 1018.3 |
| 20260507170515 | 71 | 128 | 2.0 | 5.0 | 0.00 | 0.00 | 0.00 | 52 | 1018.6 |
| 20260507170034 | 71 | 60 | 1.0 | 5.0 | 0.00 | 0.00 | 0.00 | 54 | 1018.9 |
| 20260507165514 | 70 | 52 | 2.0 | 4.0 | 0.00 | 0.00 | 0.00 | 54 | 1018.9 |
| 20260507165013 | 70 | 115 | 2.0 | 4.0 | 0.00 | 0.00 | 0.00 | 54 | 1018.9 |
| 20260507164544 | 69 | 0 | 1.0 | 4.0 | 0.00 | 0.00 | 0.00 | 56 | 1018.9 |
| 20260507164014 | 69 | 0 | 1.0 | 4.0 | 0.00 | 0.00 | 0.00 | 55 | 1018.7 |
| 20260507163512 | 69 | 0 | 1.0 | 5.0 | 0.00 | 0.00 | 0.00 | 55 | 1019.1 |
| 20260507163031 | 69 | 117 | 1.0 | 5.0 | 0.00 | 0.00 | 0.00 | 56 | 1019.1 |
| 20260507162512 | 69 | 358 | 1.0 | 5.0 | 0.00 | 0.00 | 0.00 | 57 | 1019.1 |
| 20260507162016 | 69 | 59 | 0.0 | 6.0 | 0.00 | 0.00 | 0.00 | 58 | 1019.2 |
| 20260507161613 | 68 | 0 | 1.0 | 6.0 | 0.00 | 0.00 | 0.00 | 58 | 1019.2 |
| 20260507161014 | 68 | 12 | 1.0 | 4.0 | 0.00 | 0.00 | 0.00 | 59 | 1019.0 |
| 20260507160514 | 68 | 67 | 1.0 | 5.0 | 0.00 | 0.00 | 0.00 | 58 | 1019.2 |
| 20260507160034 | 67 | 61 | 2.0 | 5.0 | 0.00 | 0.00 | 0.00 | 60 | 1019.1 |
| 20260507155518 | 67 | 35 | 2.0 | 5.0 | 0.00 | 0.02 | 0.00 | 62 | 1019.1 |
| 20260507155014 | 66 | 357 | 2.0 | 5.0 | 0.00 | 0.02 | 0.00 | 62 | 1019.2 |
| 20260507154532 | 65 | 338 | 1.0 | 4.0 | 0.00 | 0.02 | 0.00 | 64 | 1019.1 |
| 20260507154015 | 65 | 0 | 0.0 | 6.0 | 0.00 | 0.02 | 0.00 | 64 | 1019.3 |
| 20260507153513 | 64 | 6 | 2.0 | 8.0 | 0.00 | 0.02 | 0.00 | 65 | 1019.3 |
| 20260507153036 | 64 | 341 | 1.0 | 8.0 | 0.00 | 0.02 | 0.00 | 67 | 1019.3 |
| 20260507152520 | 63 | 6 | 0.0 | 4.0 | 0.00 | 0.02 | 0.00 | 70 | 1019.3 |
| 20260507152013 | 62 | 0 | 1.0 | 5.0 | 0.00 | 0.02 | 0.00 | 70 | 1019.4 |
| 20260507151536 | 62 | 332 | 2.0 | 5.0 | 0.00 | 0.02 | 0.00 | 70 | 1019.6 |
| 20260507151013 | 62 | 123 | 1.0 | 5.0 | 0.00 | 0.02 | 0.00 | 71 | 1019.5 |
| 20260507150513 | 61 | 37 | 1.0 | 4.0 | 0.00 | 0.02 | 0.00 | 71 | 1019.4 |
| 20260507150036 | 61 | 354 | 2.0 | 4.0 | 0.00 | 0.02 | 0.00 | 73 | 1019.5 |
| 20260507145517 | 61 | 25 | 0.0 | 3.0 | 0.00 | 0.02 | 0.00 | 75 | 1019.5 |
| 20260507145018 | 60 | 0 | 0.0 | 4.0 | 0.00 | 0.02 | 0.00 | 75 | 1019.6 |
| 20260507144536 | 60 | 0 | 1.0 | 4.0 | 0.00 | 0.02 | 0.00 | 75 | 1019.7 |
| 20260507144013 | 60 | 79 | 1.0 | 4.0 | 0.00 | 0.02 | 0.00 | 77 | 1019.8 |
| 20260507143515 | 59 | 103 | 1.0 | 4.0 | 0.00 | 0.02 | 0.00 | 77 | 1019.7 |
| 20260507143036 | 59 | 343 | 0.0 | 3.0 | 0.00 | 0.02 | 0.00 | 78 | 1019.6 |
| 20260507142512 | 59 | 0 | 0.0 | 3.0 | 0.00 | 0.02 | 0.00 | 78 | 1019.7 |
| 20260507142012 | 59 | 0 | 0.0 | 3.0 | 0.00 | 0.02 | 0.00 | 79 | 1019.6 |
| 20260507141534 | 59 | 0 | 0.0 | 2.0 | 0.00 | 0.02 | 0.00 | 80 | 1019.6 |
| 20260507141015 | 58 | 0 | 0.0 | 1.0 | 0.00 | 0.02 | 0.00 | 81 | 1019.7 |
| 20260507140515 | 58 | 0 | 0.0 | 3.0 | 0.00 | 0.02 | 0.00 | 82 | 1019.9 |
| 20260507140038 | 57 | 0 | 0.0 | 5.0 | 0.00 | 0.02 | 0.00 | 83 | 1020.0 |
| 20260507135513 | 57 | 0 | 0.0 | 5.0 | 0.00 | 0.02 | 0.00 | 85 | 1019.9 |
| 20260507135015 | 57 | 0 | 0.0 | 2.0 | 0.00 | 0.02 | 0.00 | 86 | 1020.0 |
| 20260507134531 | 56 | 0 | 0.0 | 2.0 | 0.00 | 0.02 | 0.00 | 87 | 1020.1 |
| 20260507134013 | 56 | 0 | 0.0 | 2.0 | 0.00 | 0.02 | 0.00 | 89 | 1020.1 |
| 20260507133516 | 56 | 0 | 0.0 | 0.0 | 0.00 | 0.02 | 0.00 | 89 | 1020.3 |
| 20260507133031 | 55 | 0 | 0.0 | 0.0 | 0.00 | 0.02 | 0.00 | 90 | 1020.2 |
| 20260507132513 | 55 | 0 | 0.0 | 0.0 | 0.00 | 0.02 | 0.00 | 90 | 1020.2 |
| 20260507132014 | 55 | 0 | 0.0 | 0.0 | 0.00 | 0.02 | 0.00 | 90 | 1020.1 |
| 20260507131539 | 55 | 0 | 0.0 | 0.0 | 0.00 | 0.02 | 0.00 | 90 | 1020.1 |
| 20260507131015 | 54 | 0 | 0.0 | 0.0 | 0.00 | 0.02 | 0.00 | 91 | 1020.0 |
| 20260507130519 | 54 | 0 | 0.0 | 0.0 | 0.00 | 0.02 | 0.00 | 91 | 1020.1 |
| 20260507130038 | 54 | 0 | 0.0 | 0.0 | 0.00 | 0.02 | 0.00 | 90 | 1020.0 |
| 20260507125513 | 54 | 0 | 0.0 | 0.0 | 0.00 | 0.02 | 0.00 | 90 | 1020.0 |
| 20260507125013 | 54 | 0 | 0.0 | 0.0 | 0.00 | 0.02 | 0.00 | 90 | 1019.9 |
| 20260507124538 | 53 | 0 | 0.0 | 0.0 | 0.00 | 0.02 | 0.00 | 90 | 1019.9 |
| 20260507124016 | 53 | 0 | 0.0 | 0.0 | 0.00 | 0.02 | 0.00 | 90 | 1019.7 |
| 20260507123517 | 53 | 0 | 0.0 | 0.0 | 0.00 | 0.02 | 0.00 | 90 | 1019.7 |
| 20260507123032 | 53 | 0 | 0.0 | 0.0 | 0.00 | 0.02 | 0.00 | 90 | 1019.7 |
| 20260507122514 | 53 | 0 | 0.0 | 0.0 | 0.00 | 0.02 | 0.00 | 90 | 1019.9 |
| 20260507122013 | 53 | 0 | 0.0 | 0.0 | 0.00 | 0.02 | 0.00 | 90 | 1019.8 |
| 20260507121531 | 53 | 0 | 0.0 | 0.0 | 0.00 | 0.02 | 0.00 | 89 | 1019.8 |
| 20260507121012 | 53 | 0 | 0.0 | 0.0 | 0.00 | 0.02 | 0.00 | 89 | 1019.7 |
| 20260507120518 | 53 | 0 | 0.0 | 0.0 | 0.00 | 0.02 | 0.00 | 89 | 1019.6 |
| 20260507120032 | 53 | 0 | 0.0 | 0.0 | 0.00 | 0.02 | 0.00 | 89 | 1019.4 |
| 20260507115513 | 53 | 0 | 0.0 | 0.0 | 0.00 | 0.02 | 0.00 | 88 | 1019.5 |
| 20260507115017 | 53 | 0 | 0.0 | 0.0 | 0.00 | 0.02 | 0.00 | 88 | 1019.4 |
| 20260507114554 | 53 | 0 | 0.0 | 0.0 | 0.00 | 0.02 | 0.00 | 88 | 1019.4 |
| 20260507114018 | 53 | 0 | 0.0 | 0.0 | 0.00 | 0.02 | 0.00 | 88 | 1019.3 |
| 20260507113515 | 53 | 0 | 0.0 | 0.0 | 0.00 | 0.02 | 0.00 | 88 | 1019.3 |
| 20260507113058 | 54 | 0 | 0.0 | 0.0 | 0.00 | 0.02 | 0.00 | 87 | 1019.1 |
| 20260507112513 | 54 | 0 | 0.0 | 0.0 | 0.00 | 0.02 | 0.00 | 87 | 1019.3 |
| 20260507112013 | 54 | 0 | 0.0 | 0.0 | 0.00 | 0.02 | 0.00 | 87 | 1019.1 |
| 20260507111540 | 54 | 0 | 0.0 | 0.0 | 0.00 | 0.02 | 0.00 | 87 | 1019.1 |
| 20260507111014 | 54 | 0 | 0.0 | 0.0 | 0.00 | 0.02 | 0.00 | 87 | 1019.1 |
| 20260507110513 | 54 | 0 | 0.0 | 0.0 | 0.00 | 0.02 | 0.00 | 86 | 1018.8 |
| 20260507110032 | 54 | 0 | 0.0 | 0.0 | 0.00 | 0.02 | 0.00 | 86 | 1018.7 |
| 20260507105514 | 54 | 0 | 0.0 | 0.0 | 0.00 | 0.02 | 0.00 | 86 | 1018.5 |
| 20260507105015 | 54 | 0 | 0.0 | 0.0 | 0.00 | 0.02 | 0.00 | 86 | 1018.5 |
| 20260507104539 | 55 | 0 | 0.0 | 0.0 | 0.00 | 0.02 | 0.00 | 86 | 1018.4 |
| 20260507104014 | 55 | 0 | 0.0 | 0.0 | 0.00 | 0.02 | 0.00 | 86 | 1018.3 |
| 20260507103518 | 55 | 0 | 0.0 | 0.0 | 0.00 | 0.02 | 0.00 | 86 | 1018.1 |
| 20260507103031 | 55 | 0 | 0.0 | 0.0 | 0.00 | 0.02 | 0.00 | 86 | 1018.1 |
| 20260507102513 | 55 | 0 | 0.0 | 0.0 | 0.00 | 0.02 | 0.00 | 86 | 1018.1 |
| 20260507102015 | 55 | 0 | 0.0 | 0.0 | 0.00 | 0.02 | 0.00 | 86 | 1017.9 |
| 20260507101532 | 55 | 0 | 0.0 | 0.0 | 0.00 | 0.02 | 0.00 | 86 | 1017.9 |
| 20260507101016 | 55 | 0 | 0.0 | 0.0 | 0.00 | 0.02 | 0.00 | 86 | 1017.8 |
| 20260507100513 | 55 | 0 | 0.0 | 0.0 | 0.00 | 0.02 | 0.00 | 85 | 1017.8 |
| 20260507100033 | 55 | 0 | 0.0 | 0.0 | 0.00 | 0.02 | 0.00 | 85 | 1017.7 |
| 20260507095514 | 55 | 0 | 0.0 | 0.0 | 0.00 | 0.02 | 0.00 | 85 | 1017.6 |
| 20260507095013 | 55 | 0 | 0.0 | 0.0 | 0.00 | 0.02 | 0.00 | 85 | 1017.6 |
| 20260507094535 | 56 | 0 | 0.0 | 0.0 | 0.00 | 0.02 | 0.00 | 85 | 1017.8 |
| 20260507094012 | 56 | 0 | 0.0 | 0.0 | 0.00 | 0.02 | 0.00 | 85 | 1017.5 |
| 20260507093517 | 56 | 0 | 0.0 | 0.0 | 0.00 | 0.02 | 0.00 | 85 | 1017.5 |
| 20260507093035 | 56 | 0 | 0.0 | 0.0 | 0.00 | 0.02 | 0.00 | 85 | 1017.6 |
| 20260507092517 | 56 | 0 | 0.0 | 0.0 | 0.00 | 0.02 | 0.00 | 85 | 1017.4 |
| 20260507092014 | 56 | 0 | 0.0 | 0.0 | 0.00 | 0.02 | 0.00 | 85 | 1017.5 |
| 20260507091536 | 56 | 0 | 0.0 | 0.0 | 0.00 | 0.02 | 0.00 | 85 | 1017.4 |
| 20260507091014 | 56 | 0 | 0.0 | 0.0 | 0.00 | 0.02 | 0.00 | 85 | 1017.3 |
| 20260507090516 | 56 | 0 | 0.0 | 0.0 | 0.00 | 0.02 | 0.00 | 85 | 1017.4 |
| 20260507090032 | 56 | 0 | 0.0 | 0.0 | 0.00 | 0.02 | 0.00 | 85 | 1017.3 |
| 20260507085514 | 56 | 0 | 0.0 | 0.0 | 0.00 | 0.02 | 0.00 | 85 | 1017.5 |
| 20260507085015 | 56 | 0 | 0.0 | 0.0 | 0.00 | 0.02 | 0.00 | 85 | 1017.3 |
| 20260507084540 | 56 | 0 | 0.0 | 0.0 | 0.00 | 0.02 | 0.00 | 84 | 1017.4 |
| 20260507084015 | 56 | 0 | 0.0 | 1.0 | 0.00 | 0.02 | 0.00 | 84 | 1017.3 |
| 20260507083514 | 56 | 0 | 0.0 | 1.0 | 0.00 | 0.02 | 0.00 | 84 | 1017.2 |
| 20260507083034 | 56 | 0 | 0.0 | 1.0 | 0.00 | 0.02 | 0.00 | 84 | 1017.2 |
| 20260507082513 | 56 | 0 | 0.0 | 1.0 | 0.00 | 0.02 | 0.00 | 84 | 1017.4 |
| 20260507082014 | 57 | 0 | 0.0 | 1.0 | 0.00 | 0.02 | 0.00 | 84 | 1017.4 |
| 20260507081540 | 57 | 0 | 0.0 | 1.0 | 0.00 | 0.02 | 0.00 | 83 | 1017.3 |
| 20260507081013 | 57 | 0 | 0.0 | 1.0 | 0.00 | 0.02 | 0.00 | 83 | 1017.3 |
| 20260507080515 | 57 | 0 | 0.0 | 0.0 | 0.00 | 0.02 | 0.00 | 83 | 1017.3 |
| 20260507080033 | 57 | 0 | 0.0 | 0.0 | 0.00 | 0.02 | 0.00 | 83 | 1017.2 |
| 20260507075512 | 57 | 0 | 0.0 | 0.0 | 0.00 | 0.02 | 0.00 | 83 | 1017.1 |
| 20260507075014 | 57 | 0 | 0.0 | 2.0 | 0.00 | 0.02 | 0.00 | 82 | 1016.9 |
| 20260507074532 | 57 | 0 | 0.0 | 2.0 | 0.00 | 0.02 | 0.00 | 82 | 1017.0 |
| 20260507074013 | 57 | 0 | 0.0 | 2.0 | 0.00 | 0.02 | 0.00 | 82 | 1016.9 |